VK4TW-13 Weather Reports


time (UTC)temp
C
wind
direction
speed
KPH
gust
KPH
rain 1hr
cm
rain 24hr
cm
rain mn
cm
humidity
%
barometer
mb
20260509002907 24 112 0.0 0.0 0.00 0.00 0.00 73 1020.4
20260509001906 23 112 0.0 0.0 0.00 0.00 0.00 75 1020.3
20260509000905 23 81 0.0 0.0 0.00 0.00 0.00 73 1020.6
20260508235904 22 112 0.0 0.0 0.00 0.00 0.00 80 1020.7
20260508234903 22 67 0.0 0.0 0.00 0.00 0.00 76 1020.7
20260508233901 22 103 0.0 0.0 0.00 0.00 0.00 83 1020.7
20260508232903 21 81 0.0 0.0 0.00 0.00 0.00 86 1020.7
20260508231859 20 99 0.0 0.0 0.00 0.00 0.00 88 1020.7
20260508230859 20 112 0.0 0.0 0.00 0.00 0.00 89 1020.8
20260508225902 19 85 0.0 0.0 0.00 0.00 0.00 91 1020.7
20260508224857 18 77 0.0 0.0 0.00 0.00 0.00 92 1020.7
20260508223855 18 74 0.0 0.0 0.00 0.00 0.00 93 1020.7
20260508222855 18 90 0.0 0.0 0.00 0.00 0.00 94 1020.7
20260508220852 17 67 0.0 0.0 0.00 0.00 0.00 96 1020.3
20260508215852 17 79 0.0 0.0 0.00 0.00 0.00 97 1020.2
20260508214852 16 111 0.0 0.0 0.00 0.00 0.00 98 1020.2
20260508213852 16 71 0.0 0.0 0.00 0.00 0.00 98 1020.2
20260508212850 15 80 0.0 0.0 0.00 0.00 0.00 99 1020.0
20260508211847 15 67 0.0 0.0 0.00 0.00 0.00 99 1020.0
20260508210847 14 71 0.0 0.0 0.00 0.00 0.00 99 1020.0
20260508205848 14 104 0.0 0.0 0.00 0.00 0.00 98 1019.9
20260508204845 14 87 0.0 0.0 0.00 0.00 0.00 98 1019.6
20260508203844 14 71 0.0 0.0 0.00 0.00 0.00 97 1019.5
20260508202847 14 75 0.0 0.0 0.00 0.00 0.00 95 1019.3
20260508201841 14 67 0.0 0.0 0.00 0.00 0.00 94 1019.0
20260508200842 14 68 0.0 0.0 0.00 0.00 0.00 94 1018.9
20260508195844 15 67 0.0 0.0 0.00 0.00 0.00 93 1018.6
20260508194840 15 67 0.0 0.0 0.00 0.00 0.00 91 1018.6
20260508193839 15 67 0.0 0.0 0.00 0.00 0.00 91 1018.5
20260508192837 15 99 0.0 0.0 0.00 0.00 0.00 90 1018.2
20260508191839 15 112 0.0 0.0 0.00 0.00 0.00 89 1018.1
20260508190838 15 104 0.0 0.0 0.00 0.00 0.00 89 1017.9
20260508184836 15 83 0.0 0.0 0.00 0.00 0.00 87 1018.1
20260508183835 15 97 0.0 0.0 0.00 0.00 0.00 86 1017.9
20260508181833 15 89 0.0 0.0 0.00 0.00 0.00 85 1017.8
20260508180831 15 82 0.0 0.0 0.00 0.00 0.00 84 1017.8
20260508175832 15 67 0.0 0.0 0.00 0.00 0.00 83 1018.0
20260508174829 15 67 0.0 0.0 0.00 0.00 0.00 83 1017.9
20260508173827 15 82 0.0 0.0 0.00 0.00 0.00 83 1018.0
20260508172828 15 67 0.0 0.0 0.00 0.00 0.00 82 1018.0
20260508171826 15 67 0.0 0.0 0.00 0.00 0.00 81 1017.9
20260508170825 15 82 0.0 0.0 0.00 0.00 0.00 80 1017.9
20260508165824 16 67 0.0 0.0 0.00 0.00 0.00 79 1017.9
20260508164822 16 67 0.0 0.0 0.00 0.00 0.00 79 1018.0
20260508162824 16 75 0.0 0.0 0.00 0.00 0.00 78 1018.0
20260508161823 16 67 0.0 0.0 0.00 0.00 0.00 77 1018.1
20260508160821 16 79 0.0 0.0 0.00 0.00 0.00 77 1018.1
20260508155820 16 67 0.0 0.0 0.00 0.00 0.00 77 1018.3
20260508154818 16 72 0.0 0.0 0.00 0.00 0.00 78 1018.4
20260508153817 15 74 0.0 0.0 0.00 0.00 0.00 78 1018.3
20260508152818 15 67 0.0 0.0 0.00 0.00 0.00 78 1018.4
20260508151814 15 77 0.0 0.0 0.00 0.00 0.00 78 1018.3
20260508150813 15 94 0.0 0.0 0.00 0.00 0.00 79 1018.3
20260508145814 15 93 0.0 0.0 0.00 0.00 0.00 78 1018.6
20260508144814 15 100 0.0 0.0 0.00 0.00 0.00 78 1018.5
20260508143813 15 112 0.0 0.0 0.00 0.00 0.00 78 1018.6
20260508142813 15 82 0.0 0.0 0.00 0.00 0.00 78 1018.7
20260508141809 15 112 0.0 0.0 0.00 0.00 0.00 77 1018.7
20260508140809 15 67 0.0 0.0 0.00 0.00 0.00 77 1018.8
20260508134806 15 67 0.0 0.0 0.00 0.00 0.00 76 1018.9
20260508132805 15 77 0.0 0.0 0.00 0.00 0.00 76 1019.0
20260508131805 15 67 0.0 0.0 0.00 0.00 0.00 75 1019.1
20260508130803 15 67 0.0 0.0 0.00 0.00 0.00 75 1019.0
20260508125803 15 112 0.0 0.0 0.00 0.00 0.00 76 1019.0
20260508124800 15 112 0.0 0.0 0.00 0.00 0.00 77 1019.2
20260508123759 15 67 0.0 0.0 0.00 0.00 0.00 78 1019.2
20260508122805 15 112 0.0 0.0 0.00 0.00 0.00 79 1019.1
20260508121800 15 95 0.0 0.0 0.00 0.00 0.00 80 1019.2
20260508120759 15 112 0.0 0.0 0.00 0.00 0.00 81 1019.3
20260508115758 15 96 0.0 0.0 0.00 0.00 0.00 82 1019.3
20260508114756 15 102 0.0 0.0 0.00 0.00 0.00 83 1019.3
20260508113756 15 112 0.0 0.0 0.00 0.00 0.00 85 1019.4
20260508112754 15 68 0.0 0.0 0.00 0.00 0.00 85 1019.4
20260508111753 15 112 0.0 0.0 0.00 0.00 0.00 86 1019.4
20260508110752 15 112 0.0 0.0 0.00 0.00 0.00 85 1019.4
20260508105751 15 67 0.0 0.0 0.00 0.00 0.00 86 1019.3
20260508104750 15 67 0.0 0.0 0.00 0.00 0.00 89 1019.3
20260508103749 16 67 0.0 0.0 0.00 0.00 0.00 91 1019.2
20260508102751 16 67 0.0 0.0 0.00 0.00 0.00 94 1018.9
20260508101747 16 112 0.0 0.0 0.00 0.00 0.00 94 1018.8
20260508100746 16 67 0.0 0.0 0.00 0.00 0.00 92 1018.6
20260508095749 16 112 0.0 0.0 0.00 0.00 0.00 100 1018.6
20260508094746 16 112 0.0 0.0 0.00 0.00 0.00 92 1018.6
20260508093747 16 112 0.0 0.0 0.00 0.00 0.00 96 1018.5
20260508092744 17 67 0.0 0.0 0.00 0.00 0.00 95 1018.4
20260508091743 17 67 0.0 0.0 0.00 0.00 0.00 99 1018.4
20260508090741 17 67 0.0 0.0 0.00 0.00 0.00 99 1018.1
20260508085741 18 112 0.0 0.0 0.00 0.00 0.00 96 1018.0
20260508084739 18 67 0.0 0.0 0.00 0.00 0.00 95 1017.9
20260508083738 18 67 0.0 0.0 0.00 0.00 0.00 94 1017.7
20260508082740 19 67 0.0 0.0 0.00 0.00 0.00 90 1017.5
20260508081736 20 67 0.0 0.0 0.00 0.00 0.00 90 1017.5
20260508080735 20 67 0.0 0.0 0.00 0.00 0.00 88 1017.3
20260508075737 20 112 0.0 0.0 0.00 0.00 0.00 86 1017.2
20260508074733 20 112 0.0 0.0 0.00 0.00 0.00 84 1017.0
20260508073733 20 112 0.0 0.0 0.00 0.00 0.00 81 1016.9
20260508072733 21 112 0.0 0.0 0.00 0.00 0.00 78 1016.9
20260508071730 21 100 0.0 0.0 0.00 0.00 0.00 71 1016.6
20260508070730 21 112 0.0 0.0 0.00 0.00 0.00 66 1016.5
20260508065730 22 112 0.0 0.0 0.00 0.00 0.00 62 1016.3
20260508064729 22 112 0.0 0.0 0.00 0.00 0.00 58 1016.3
20260508063727 22 112 0.0 0.0 0.00 0.00 0.00 53 1016.1
20260508062727 23 112 0.0 0.0 0.00 0.00 0.00 49 1016.0
20260508061726 23 112 0.0 0.0 0.00 0.00 0.00 44 1016.0
20260508060724 23 82 0.0 0.0 0.00 0.00 0.00 37 1015.9
20260508055727 23 106 0.0 0.0 0.00 0.00 0.00 38 1015.9
20260508054722 24 67 0.0 0.0 0.00 0.00 0.00 38 1015.8
20260508053720 24 86 0.0 0.0 0.00 0.00 0.00 37 1015.7
20260508052723 24 99 0.0 0.0 0.00 0.00 0.00 40 1015.7
20260508051718 24 112 0.0 0.0 0.00 0.00 0.00 40 1015.6
20260508050720 25 73 0.0 0.0 0.00 0.00 0.00 36 1015.5
20260508045719 25 75 0.0 0.0 0.00 0.00 0.00 39 1015.6
20260508044717 25 112 0.0 0.0 0.00 0.00 0.00 40 1015.7
20260508043715 25 112 0.0 0.0 0.00 0.00 0.00 39 1015.7
20260508042714 25 86 0.0 0.0 0.00 0.00 0.00 37 1015.7
20260508041713 25 112 0.0 0.0 0.00 0.00 0.00 38 1015.9
20260508040712 25 89 0.0 0.0 0.00 0.00 0.00 38 1015.9
20260508035711 25 98 0.0 0.0 0.00 0.00 0.00 37 1016.0
20260508034713 25 101 0.0 0.0 0.00 0.00 0.00 36 1016.1
20260508033711 25 112 0.0 0.0 0.00 0.00 0.00 38 1016.2
20260508032711 25 102 0.0 0.0 0.00 0.00 0.00 40 1016.2
20260508031708 25 87 0.0 0.0 0.00 0.00 0.00 38 1016.4
20260508030708 24 105 0.0 0.0 0.00 0.00 0.00 38 1016.6
20260508025708 24 67 0.0 0.0 0.00 0.00 0.00 37 1016.8
20260508024706 24 72 0.0 0.0 0.00 0.00 0.00 39 1017.2
20260508023705 24 67 0.0 0.0 0.00 0.00 0.00 43 1017.3
20260508022707 24 108 0.0 0.0 0.00 0.00 0.00 40 1017.6
20260508021704 24 103 0.0 0.0 0.00 0.00 0.00 47 1017.7
20260508020702 23 72 0.0 0.0 0.00 0.00 0.00 44 1017.7
20260508015702 23 94 0.0 0.0 0.00 0.00 0.00 46 1018.0
20260508014701 23 72 0.0 0.0 0.00 0.00 0.00 46 1018.0
20260508013701 22 94 0.0 0.0 0.00 0.00 0.00 50 1018.2
20260508012702 22 71 0.0 0.0 0.00 0.00 0.00 49 1018.4
20260508011657 22 71 0.0 0.0 0.00 0.00 0.00 47 1018.6
20260508010658 22 75 0.0 0.0 0.00 0.00 0.00 51 1018.9
20260508005657 21 82 0.0 0.0 0.00 0.00 0.00 54 1018.8
20260508004655 21 98 0.0 0.0 0.00 0.00 0.00 55 1019.0
20260508003655 21 79 0.0 0.0 0.00 0.00 0.00 54 1019.4